[[{"header":{"parameterUnit":"m.s-1","parameterCategory":2,"la1":30.2991,"la2":30.254,"lo1":-89.0895,"lo2":-89.0444,"dy":0.0017,"dx":0.0017,"nx":28,"ny":28,"refTime":"2023-03-30T15:00:00:Z","depth":"0","parameterNumber":2,"parameterNumberName":"U-component_of_CURRENTS"},"data":[0,0,0,0,0,0,0,0,0,0,0,0,0,0,0,0,0,0,0,0,0,0,0,0,0,0,0,0,0,0,0,0,0,0,0,0,0,0,0,0,0,0,0,0,0,0,0,0,0,0,0,0,0,0,0,0,0,0,0.3205,0.3204,0,0.3155,0.3154,0.3153,0.3074,0.3073,0.3071,0.307,0.3015,0.3015,0.3014,0,0,0,0,0,0,0,0,0,0,0,0,0,0.3229,0.3229,0.3205,0.3204,0.3204,0.3155,0.3154,0.3153,0.3074,0.3073,0.3071,0.307,0.3015,0.3015,0.3014,0,0,0,0,0,0,0,0,0,0,0,0,0,0.3201,0.3229,0.3205,0.316,0.3156,0.3155,0.3154,0.3153,0.3074,0.3072,0.3071,0.3069,0.3015,0.3015,0.3014,0.305,0,0,0.3013,0.3013,0,0,0,0,0,0,0,0,0.3202,0.32,0.3167,0.3163,0.3158,0.312,0.3142,0.3119,0.3075,0.3103,0.307,0.3068,0.3052,0.3049,0.3041,0.3047,0.3045,0.3013,0.3013,0.3012,0.3012,0,0,0,0,0,0,0,0.3204,0.3201,0.3183,0.3167,0.3161,0.3141,0.3135,0.3137,0.3088,0.3101,0.3095,0.3093,0.3049,0.3042,0.3039,0.3044,0.3013,0.3013,0.3012,0.3012,0.3127,0.313,0,0,0,0,0,0,0.3217,0.3204,0.3185,0.3182,0.3178,0.3143,0.3135,0.3133,0.3087,0.3079,0.3095,0.309,0.3043,0.304,0.3037,0.3108,0.3012,0.3012,0.3012,0.3123,0.3127,0.3131,0,0,0,0,0,0,0.3218,0.3216,0.3187,0.3193,0.3188,0.3144,0.3142,0.3133,0.3128,0.3084,0.3074,0.31,0.3042,0.3037,0.3068,0.3104,0.3012,0.3012,0.3119,0.3125,0.3129,0.3231,0,0,0,0,0,0,0.3219,0.3216,0.3225,0.3194,0.3188,0.3205,0.3144,0.3133,0.3131,0.3123,0.3086,0.3078,0.304,0.3069,0.3068,0.3102,0.3011,0.3115,0.3122,0.3128,0.3223,0.3239,0.3252,0,0,0,0,0,0.322,0.324,0.3226,0.3224,0.3199,0.3207,0.3204,0.3164,0.3133,0.3149,0.3132,0.3079,0.3107,0.3072,0.3069,0.3104,0.3112,0.312,0.3127,0.3217,0.3236,0.3252,0,0,0,0,0,0,0.3256,0.3233,0.3217,0.3229,0.3228,0.3195,0.3206,0.3181,0.3178,0.3171,0.3122,0.3116,0.3163,0.3131,0.3093,0.3161,0.3101,0.3109,0.3171,0.3188,0.3202,0.3177,0.3011,0,0,0,0,0,0.3271,0.327,0.3259,0.3266,0.3277,0.3246,0.3245,0.3223,0.3213,0.3207,0.318,0.3171,0.3194,0.3187,0.32,0.3229,0.3227,0.3253,0.3268,0.328,0.3262,0.3327,0.3345,0.3155,0.3155,0.3155,0,0,0.3275,0.3271,0.3263,0.3274,0.3268,0.3284,0.3241,0.3253,0.3256,0.3207,0.3215,0.3229,0.3222,0.3264,0.3279,0.3233,0.3341,0.3289,0.3299,0.3274,0.3337,0.3355,0.3371,0.316,0.3159,0.3159,0,0,0.3295,0.3299,0.3309,0.3324,0.3334,0.3323,0.3334,0.3321,0.3312,0.3336,0.3317,0.3354,0.3356,0.3362,0.3366,0.347,0.3432,0.3478,0.3504,0.3569,0.3584,0.3597,0.3647,0.3663,0.3464,0.3464,0.3464,0,0.3314,0.3314,0.3317,0.3348,0.3351,0.3346,0.3363,0.3371,0.3363,0.3367,0.3352,0.3402,0.3401,0.3455,0.349,0.3498,0.3523,0.3434,0.3585,0.3598,0.361,0.3657,0.3674,0.347,0.3469,0.3468,0.3468,0,0.333,0.3348,0.3368,0.3389,0.3405,0.3425,0.3437,0.3455,0.3447,0.3443,0.3501,0.352,0.3535,0.3564,0.3551,0.3639,0.3629,0.3613,0.3534,0.3635,0.3679,0.3695,0.3478,0.3476,0.3474,0.3473,0,0,0.3303,0.3367,0.3366,0.3376,0.3424,0.3425,0.3473,0.3495,0.3502,0.3538,0.3553,0.3629,0.3633,0.3641,0.3651,0.3699,0.3823,0.3686,0.3686,0.3719,0.3966,0.3866,0.3873,0.3837,0.384,0.3842,0.3972,0,0.3307,0.3354,0.3385,0.341,0.3425,0.346,0.3489,0.3516,0.3538,0.3561,0.3614,0.3648,0.3665,0.368,0.3744,0.3795,0.3865,0.3788,0.3874,0.3876,0.3762,0.3888,0.3669,0.3758,0.3987,0.399,0.3992,0,0.3285,0.3315,0.3353,0.3393,0.3404,0.3427,0.3452,0.3486,0.355,0.3571,0.3634,0.3665,0.3754,0.375,0.3903,0.3855,0.3922,0.3965,0.3971,0.384,0.3804,0.3691,0.3777,0.3637,0.4015,0.4013,0.4012,0,0.3209,0.3274,0.3293,0.3312,0.3376,0.3393,0.3423,0.348,0.3505,0.3581,0.3603,0.371,0.3751,0.3868,0.3957,0.3946,0.4109,0.4103,0.4086,0.408,0.3885,0.3856,0.3822,0.4231,0.4231,0.423,0.423,0,0.3184,0.319,0.3257,0.3269,0.3278,0.3336,0.3359,0.3409,0.3475,0.3514,0.3601,0.3647,0.3785,0.3882,0.3979,0.4071,0.414,0.4108,0.4114,0.3918,0.3891,0.375,0.3699,0.4235,0.4234,0.4233,0.4232,0,0.3116,0.3164,0.3179,0.3236,0.3251,0.3255,0.3325,0.3348,0.3415,0.3473,0.3501,0.3617,0.3741,0.3864,0.4035,0.4073,0.4051,0.4201,0.3949,0.3922,0.3744,0.3707,0.3605,0.3513,0.4208,0.4206,0.4205,0,0.3093,0.3097,0.3144,0.3148,0.3183,0.3205,0.3234,0.3312,0.3348,0.3456,0.3483,0.3599,0.3675,0.3861,0.3944,0.4082,0.3987,0.3947,0.3882,0.371,0.3677,0.3582,0.3506,0.369,0.3684,0.368,0.3676,0,0.3052,0.307,0.31,0.3102,0.3123,0.3138,0.3187,0.32,0.3301,0.334,0.3412,0.3474,0.3627,0.3638,0.3774,0.3836,0.37,0.3858,0.3751,0.3322,0.3146,0.3065,0.363,0.3636,0.364,0.3643,0.3646,0.3647,0.3021,0.3029,0.3063,0.3046,0.3067,0.3061,0.3034,0.3095,0.312,0.3146,0.3284,0.3315,0.3355,0.3501,0.3538,0.3385,0.3473,0.3277,0.3272,0.3211,0.3025,0.3492,0.3453,0.3455,0.3458,0.346,0.3462,0,0.2982,0.2999,0.2999,0.2983,0.2948,0.298,0.299,0.2932,0.2915,0.3012,0.3043,0.3033,0.298,0.301,0.2917,0.2815,0.2737,0.2711,0.2516,0.2496,0.2963,0.2837,0.2573,0.2573,0.2573,0.2573,0.2573,0.2573,0.2969,0.2971,0.2957,0.2858,0.2829,0.2746,0.271,0.2651,0.2676,0.2618,0.2612,0.2665,0.267,0.2549,0.2366,0.2308,0.2157,0.203,0.211,0.2403,0.2454,0.2503,0.2371,0.2014,0.2014,0.1508,0.1503,0.15]},{"header":{"parameterUnit":"m.s-1","parameterCategory":2,"la1":30.2991,"la2":30.254,"lo1":-89.0895,"lo2":-89.0444,"dy":0.0017,"dx":0.0017,"nx":28,"ny":28,"refTime":"2023-03-30T15:00:00:Z","depth":"0","parameterNumber":3,"parameterNumberName":"V-component_of_CURRENTS"},"data":[0,0,0,0,0,0,0,0,0,0,0,0,0,0,0,0,0,0,0,0,0,0,0,0,0,0,0,0,0,0,0,0,0,0,0,0,0,0,0,0,0,0,0,0,0,0,0,0,0,0,0,0,0,0,0,0,0,0,-0.0363,-0.0364,0,-0.0425,-0.0426,-0.0426,-0.0495,-0.0496,-0.0497,-0.0498,-0.063,-0.0633,-0.0635,0,0,0,0,0,0,0,0,0,0,0,0,0,-0.0318,-0.0319,-0.0363,-0.0364,-0.0364,-0.0425,-0.0426,-0.0426,-0.0495,-0.0496,-0.0497,-0.0498,-0.0629,-0.0633,-0.0636,0,0,0,0,0,0,0,0,0,0,0,0,0,-0.0355,-0.0319,-0.0363,-0.0405,-0.041,-0.0424,-0.0426,-0.0427,-0.0494,-0.0496,-0.0497,-0.0499,-0.0628,-0.0632,-0.0636,-0.0632,0,0,-0.0648,-0.065,0,0,0,0,0,0,0,0,-0.0353,-0.0357,-0.0398,-0.0402,-0.0407,-0.0453,-0.0459,-0.0499,-0.0494,-0.0463,-0.0498,-0.0499,-0.0576,-0.0585,-0.0593,-0.0638,-0.0644,-0.0649,-0.0651,-0.0653,-0.0654,0,0,0,0,0,0,0,-0.035,-0.0354,-0.0388,-0.0399,-0.0404,-0.0426,-0.0433,-0.0466,-0.0512,-0.0465,-0.0471,-0.0476,-0.058,-0.0589,-0.0596,-0.0646,-0.0648,-0.0652,-0.0654,-0.0656,-0.0629,-0.0627,0,0,0,0,0,0,-0.0339,-0.0352,-0.0386,-0.039,-0.0383,-0.0426,-0.0433,-0.0437,-0.0511,-0.0522,-0.0475,-0.0479,-0.0581,-0.0592,-0.0601,-0.0578,-0.0653,-0.0656,-0.0659,-0.0633,-0.0629,-0.0625,0,0,0,0,0,0,-0.0338,-0.0341,-0.0383,-0.0372,-0.0379,-0.0425,-0.0429,-0.0438,-0.0449,-0.0517,-0.0531,-0.0478,-0.0583,-0.0596,-0.0605,-0.0585,-0.0658,-0.0662,-0.0636,-0.0631,-0.0627,-0.0545,0,0,0,0,0,0,-0.0336,-0.0341,-0.0337,-0.0371,-0.0379,-0.0394,-0.0428,-0.0438,-0.0451,-0.0457,-0.0524,-0.0537,-0.0585,-0.0598,-0.0609,-0.0591,-0.0665,-0.064,-0.0634,-0.0629,-0.0552,-0.0538,-0.0527,0,0,0,0,0,-0.0334,-0.033,-0.0337,-0.0341,-0.0374,-0.0394,-0.04,-0.0438,-0.0449,-0.0453,-0.0474,-0.0535,-0.0569,-0.0599,-0.0613,-0.0596,-0.0643,-0.0636,-0.0629,-0.0557,-0.0541,-0.0527,0,0,0,0,0,0,-0.0321,-0.0337,-0.0346,-0.0349,-0.0368,-0.0405,-0.0413,-0.0427,-0.0446,-0.0455,-0.0507,-0.0521,-0.0519,-0.0553,-0.0585,-0.0562,-0.0611,-0.0607,-0.0552,-0.0538,-0.0525,-0.0528,-0.0668,0,0,0,0,0,-0.031,-0.0301,-0.033,-0.0329,-0.0341,-0.037,-0.038,-0.0405,-0.0427,-0.0438,-0.047,-0.0492,-0.0497,-0.0515,-0.0533,-0.0531,-0.0544,-0.0519,-0.0507,-0.0496,-0.0501,-0.0463,-0.0449,-0.0603,-0.0603,-0.0603,0,0,-0.0304,-0.0309,-0.0307,-0.0323,-0.0343,-0.0355,-0.0381,-0.0399,-0.0399,-0.0449,-0.045,-0.0456,-0.0482,-0.0472,-0.0474,-0.0505,-0.0456,-0.0488,-0.0479,-0.0489,-0.0455,-0.044,-0.0428,-0.0598,-0.0599,-0.06,0,0,-0.0295,-0.0294,-0.0293,-0.0304,-0.0327,-0.0341,-0.0341,-0.0369,-0.0375,-0.0371,-0.0387,-0.0367,-0.0401,-0.0397,-0.0403,-0.0327,-0.0387,-0.0333,-0.0289,-0.0251,-0.0239,-0.0229,-0.0224,-0.0214,-0.0333,-0.0333,-0.0333,0,-0.0297,-0.0287,-0.0296,-0.0304,-0.0305,-0.033,-0.0334,-0.0341,-0.036,-0.0341,-0.0365,-0.0331,-0.0361,-0.0318,-0.0294,-0.0304,-0.0305,-0.0352,-0.0238,-0.0228,-0.0219,-0.0217,-0.0207,-0.0328,-0.0329,-0.0329,-0.033,0,-0.0288,-0.0284,-0.0285,-0.0291,-0.0293,-0.0299,-0.031,-0.03,-0.0297,-0.0293,-0.0245,-0.0251,-0.0228,-0.0223,-0.025,-0.0184,-0.0212,-0.0225,-0.0286,-0.0199,-0.0201,-0.0192,-0.0321,-0.0323,-0.0325,-0.0326,0,0,-0.0286,-0.0282,-0.0281,-0.0266,-0.0283,-0.0276,-0.0267,-0.0246,-0.0203,-0.0209,-0.014,-0.0136,-0.0121,-0.0122,-0.0126,-0.0103,-0.0043,-0.0142,-0.0142,-0.0154,0.0018,-0.0009,-0.0003,-0.0038,-0.0036,-0.0034,-0.001,0,-0.028,-0.0267,-0.027,-0.0245,-0.0236,-0.0239,-0.021,-0.019,-0.0164,-0.0102,-0.0086,-0.0032,-0.0087,-0.0051,-0.0037,-0.0028,-0.0016,-0.005,-0.005,-0.005,-0.0098,0.0009,0.0012,0.0034,-0.0002,-0.0001,0.0,0,-0.0273,-0.0251,-0.0233,-0.0184,-0.0181,-0.0164,-0.009,-0.0072,-0.0008,0.0018,0.0065,0.0078,0.0125,0.0074,0.0099,0.0079,0.0048,0.0037,0.0038,-0.0014,-0.0059,-0.0056,0.005,-0.0073,0.0013,0.0012,0.0011,0,-0.0237,-0.0219,-0.0186,-0.0179,-0.0143,-0.011,-0.0079,-0.0023,0.0033,0.011,0.0171,0.0204,0.0257,0.0229,0.0185,0.0152,0.0208,0.0164,0.0106,0.0102,0.009,0.0082,0.0061,0.0179,0.0179,0.0178,0.0178,0,-0.022,-0.0191,-0.0156,-0.0135,-0.0054,-0.0053,0.0047,0.0079,0.016,0.0257,0.0248,0.0336,0.03,0.0318,0.0244,0.0211,0.0254,0.0131,0.0122,0.012,0.0115,-0.0008,-0.0073,0.0179,0.0179,0.0179,0.0179,0,-0.02,-0.0189,-0.0131,-0.0069,-0.0039,0.0025,0.0127,0.0208,0.0256,0.0386,0.0419,0.0465,0.0485,0.0427,0.0405,0.0308,0.0208,0.0232,0.0213,0.0201,0.0011,-0.0047,-0.0074,-0.011,0.0177,0.0176,0.0176,0,-0.0193,-0.0164,-0.0072,-0.0006,0.0026,0.0121,0.0201,0.0261,0.0346,0.047,0.0545,0.0598,0.0656,0.0597,0.0457,0.0344,0.0225,0.0234,0.017,0.002,-0.0052,-0.0101,-0.0133,0.0186,0.0186,0.0186,0.0186,0,-0.0155,-0.0123,-0.007,0.006,0.0157,0.0261,0.0369,0.0448,0.0532,0.0637,0.0756,0.0811,0.0758,0.0677,0.0508,0.0394,0.0156,0.0226,0.01,-0.0016,-0.0096,-0.0142,0.0119,0.0185,0.0185,0.0185,0.0185,0.0185,-0.0113,-0.0064,0.0019,0.014,0.0255,0.0382,0.0468,0.0584,0.0719,0.0873,0.0912,0.1034,0.0876,0.0661,0.0478,0.0139,0.0149,0.0022,-0.0028,-0.0059,-0.0114,0.0124,0.0159,0.0159,0.0159,0.0159,0.0159,0,-0.0052,-0.0001,0.0105,0.0243,0.0367,0.0414,0.0569,0.0653,0.0808,0.0993,0.1106,0.1152,0.0919,0.0644,0.0204,-0.0061,-0.0158,-0.0207,-0.0277,-0.0291,-0.0049,-0.0071,-0.0119,-0.0118,-0.0118,-0.0118,-0.0118,-0.0118,-0.0009,0.0077,0.0118,0.0309,0.041,0.0546,0.0628,0.0761,0.0906,0.1134,0.1274,0.1365,0.1167,0.0385,-0.0186,-0.0322,-0.0483,-0.0519,-0.0593,-0.0452,-0.0435,-0.0419,-0.0456,-0.0584,-0.0584,-0.0811,-0.0813,-0.0815]}],[{"header":{"parameterUnit":"m.s-1","parameterCategory":2,"la1":30.2991,"la2":30.254,"lo1":-89.0895,"lo2":-89.0444,"dy":0.0017,"dx":0.0017,"nx":28,"ny":28,"refTime":"2023-03-30T15:00:00:Z","depth":"2","parameterNumber":2,"parameterNumberName":"U-component_of_CURRENTS"},"data":[0,0,0,0,0,0,0,0,0,0,0,0,0,0,0,0,0,0,0,0,0,0,0,0,0,0,0,0,0,0,0,0,0,0,0,0,0,0,0,0,0,0,0,0,0,0,0,0,0,0,0,0,0,0,0,0,0,0,0.2365,0.2365,0,0.2393,0.2394,0.2394,0.2454,0.2455,0.2456,0.2457,0.2609,0.2612,0.2615,0,0,0,0,0,0,0,0,0,0,0,0,0,0.231,0.2311,0.2365,0.2365,0.2365,0.2393,0.2394,0.2395,0.2454,0.2455,0.2456,0.2457,0.2608,0.2611,0.2615,0,0,0,0,0,0,0,0,0,0,0,0,0,0.2339,0.2312,0.2365,0.2395,0.2398,0.2393,0.2394,0.2395,0.2454,0.2455,0.2457,0.2458,0.2606,0.2611,0.2616,0.2619,0,0,0.2631,0.2633,0,0,0,0,0,0,0,0,0.2337,0.2341,0.2391,0.2393,0.2396,0.2419,0.243,0.2475,0.2454,0.2436,0.2457,0.2458,0.2553,0.2562,0.2568,0.2626,0.2632,0.2631,0.2634,0.2636,0.2637,0,0,0,0,0,0,0,0.2335,0.234,0.238,0.2391,0.2394,0.239,0.2396,0.2438,0.2492,0.2438,0.2441,0.2439,0.2556,0.2563,0.2572,0.2635,0.2631,0.2635,0.2638,0.264,0.2865,0.2867,0,0,0,0,0,0,0.2326,0.2339,0.2379,0.238,0.2366,0.2389,0.2397,0.2413,0.2489,0.25,0.2438,0.2441,0.2554,0.2567,0.2578,0.2718,0.2636,0.264,0.2643,0.2862,0.2865,0.2869,0,0,0,0,0,0,0.2325,0.233,0.2377,0.2356,0.2361,0.2389,0.2406,0.2413,0.2452,0.2487,0.2501,0.2474,0.2556,0.2571,0.2674,0.2719,0.2643,0.2647,0.2858,0.2863,0.2867,0.2913,0,0,0,0,0,0,0.2324,0.233,0.2321,0.2356,0.2362,0.2394,0.2405,0.2412,0.2444,0.2451,0.2522,0.2535,0.2558,0.2667,0.2679,0.2724,0.2651,0.2854,0.286,0.2865,0.2908,0.2919,0.2928,0,0,0,0,0,0.2322,0.2326,0.2321,0.2325,0.2356,0.2394,0.2398,0.2423,0.2445,0.2465,0.254,0.2535,0.2712,0.2674,0.2687,0.2735,0.2851,0.2858,0.2865,0.2903,0.2916,0.2928,0,0,0,0,0,0,0.2318,0.2332,0.2329,0.2341,0.2366,0.2404,0.2407,0.2439,0.2508,0.2532,0.2575,0.2595,0.2704,0.2717,0.2674,0.282,0.278,0.279,0.2804,0.2817,0.2827,0.2886,0.2655,0,0,0,0,0,0.2303,0.2322,0.2328,0.2356,0.2345,0.238,0.2393,0.2432,0.2495,0.2526,0.2584,0.2657,0.2735,0.2775,0.2839,0.2911,0.2945,0.2953,0.2963,0.2971,0.3031,0.3103,0.3125,0.2891,0.2891,0.2891,0,0,0.231,0.2329,0.2335,0.2355,0.2366,0.2394,0.2395,0.2442,0.2519,0.2534,0.2656,0.27,0.2767,0.2863,0.291,0.2882,0.3053,0.298,0.2986,0.3043,0.3113,0.3135,0.3155,0.2896,0.2895,0.2894,0,0,0.235,0.2343,0.2352,0.2372,0.2399,0.2425,0.2446,0.2498,0.2558,0.2662,0.2712,0.2802,0.2888,0.2965,0.3008,0.3116,0.3111,0.3115,0.3207,0.3274,0.3294,0.3312,0.3362,0.3384,0.3111,0.3111,0.3111,0,0.2347,0.237,0.2367,0.239,0.241,0.2446,0.2477,0.2551,0.2658,0.2712,0.2715,0.2892,0.295,0.3088,0.3149,0.3142,0.317,0.3143,0.3286,0.3305,0.3323,0.337,0.3394,0.3114,0.3114,0.3113,0.3113,0,0.2398,0.2403,0.2418,0.2457,0.2488,0.2528,0.2601,0.2676,0.274,0.2804,0.2948,0.3033,0.3131,0.3161,0.3206,0.336,0.3335,0.329,0.3247,0.3349,0.3392,0.3416,0.3118,0.3117,0.3116,0.3116,0,0,0.2376,0.2433,0.2426,0.245,0.2521,0.2561,0.2684,0.2776,0.2871,0.2969,0.3083,0.3243,0.3268,0.3329,0.3373,0.3468,0.362,0.3453,0.3455,0.3492,0.3765,0.3424,0.3417,0.3583,0.3588,0.3592,0.3736,0,0.2389,0.2445,0.2477,0.2547,0.2559,0.2636,0.2753,0.287,0.2963,0.3089,0.3191,0.3314,0.3335,0.3391,0.3493,0.3594,0.3691,0.3586,0.3676,0.368,0.3353,0.3436,0.3184,0.3261,0.3759,0.3763,0.3766,0,0.2367,0.2421,0.2482,0.2581,0.2591,0.2675,0.2827,0.2941,0.3119,0.3191,0.3305,0.3376,0.3561,0.3546,0.3767,0.3691,0.3771,0.3834,0.3837,0.3533,0.3383,0.3249,0.3286,0.3805,0.3802,0.3799,0.3797,0,0.233,0.2392,0.2455,0.2489,0.263,0.2706,0.2798,0.297,0.3062,0.3262,0.332,0.3503,0.3586,0.3734,0.382,0.3831,0.4013,0.4012,0.3785,0.3762,0.3577,0.3524,0.4197,0.4197,0.4196,0.4196,0.4195,0,0.2319,0.2347,0.2448,0.2505,0.2594,0.2702,0.2833,0.2955,0.3117,0.3211,0.3369,0.3451,0.3644,0.3728,0.3849,0.3831,0.401,0.3841,0.3783,0.3576,0.3524,0.4021,0.3999,0.4201,0.42,0.4199,0.4198,0,0.2291,0.2338,0.2402,0.2547,0.2586,0.2663,0.2815,0.2913,0.3069,0.3195,0.3254,0.3432,0.3517,0.362,0.3823,0.3792,0.3862,0.3813,0.3524,0.3426,0.3594,0.3574,0.3655,0.3644,0.3635,0.3628,0.3621,0,0.2296,0.2337,0.2434,0.246,0.2535,0.2642,0.2726,0.2882,0.2964,0.3157,0.3205,0.331,0.3316,0.3394,0.3386,0.3428,0.3619,0.3205,0.3178,0.3607,0.3545,0.3538,0.353,0.2992,0.2981,0.2972,0.2965,0,0.2323,0.2346,0.2411,0.2464,0.2525,0.2592,0.271,0.2739,0.2912,0.2938,0.2996,0.3009,0.3043,0.2903,0.2861,0.289,0.3165,0.3011,0.3589,0.3084,0.2969,0.291,0.2928,0.2884,0.2892,0.2898,0.2903,0.2906,0.2309,0.2352,0.2409,0.2427,0.2496,0.2535,0.2534,0.259,0.259,0.2584,0.2701,0.2594,0.2629,0.2384,0.2343,0.2345,0.2589,0.2575,0.2612,0.2656,0.2469,0.2335,0.2101,0.2104,0.2107,0.211,0.2112,0,0.227,0.2313,0.2366,0.2378,0.2392,0.2464,0.2508,0.2413,0.2287,0.2284,0.2209,0.1948,0.1819,0.1905,0.1769,0.1757,0.1866,0.1723,0.1893,0.1968,0.2037,0.1829,0.1287,0.1285,0.1283,0.1281,0,0,0.2244,0.2236,0.2252,0.221,0.226,0.2229,0.2207,0.2016,0.1938,0.1703,0.1594,0.1661,0.176,0.1456,0.144,0.1347,0.1658,0.1296,0.1952,0.2222,0.2288,0.2507,0.2263,0,0,0,0,0]},{"header":{"parameterUnit":"m.s-1","parameterCategory":2,"la1":30.2991,"la2":30.254,"lo1":-89.0895,"lo2":-89.0444,"dy":0.0017,"dx":0.0017,"nx":28,"ny":28,"refTime":"2023-03-30T15:00:00:Z","depth":"2","parameterNumber":3,"parameterNumberName":"V-component_of_CURRENTS"},"data":[0,0,0,0,0,0,0,0,0,0,0,0,0,0,0,0,0,0,0,0,0,0,0,0,0,0,0,0,0,0,0,0,0,0,0,0,0,0,0,0,0,0,0,0,0,0,0,0,0,0,0,0,0,0,0,0,0,0,0.0128,0.0128,0,0.0109,0.0109,0.0109,0.0092,0.0092,0.0092,0.0092,-0.0026,-0.0029,-0.0032,0,0,0,0,0,0,0,0,0,0,0,0,0,0.0123,0.0124,0.0128,0.0128,0.0128,0.0109,0.0109,0.0109,0.0092,0.0092,0.0092,0.0092,-0.0025,-0.0028,-0.0032,0,0,0,0,0,0,0,0,0,0,0,0,0,0.0117,0.0124,0.0129,0.0118,0.0117,0.0109,0.0109,0.0109,0.0092,0.0092,0.0092,0.0092,-0.0024,-0.0028,-0.0032,-0.0056,0,0,-0.0046,-0.0048,0,0,0,0,0,0,0,0,0.0117,0.0117,0.012,0.0119,0.0117,0.0103,0.0064,0.0049,0.0092,0.0101,0.0092,0.0092,0.0009,0.0001,-0.0001,-0.0061,-0.0066,-0.0047,-0.0049,-0.0051,-0.0053,0,0,0,0,0,0,0,0.0118,0.0118,0.0121,0.0119,0.0118,0.0105,0.0104,0.0061,0.0054,0.0101,0.0099,0.0098,0.0007,0.0004,-0.0004,-0.0068,-0.0046,-0.005,-0.0053,-0.0055,-0.0137,-0.0136,0,0,0,0,0,0,0.0123,0.0118,0.0121,0.012,0.0117,0.0105,0.0104,0.0108,0.0057,0.005,0.0098,0.0097,0.0012,0.0001,-0.0008,-0.0016,-0.0051,-0.0055,-0.0058,-0.0137,-0.0137,-0.0136,0,0,0,0,0,0,0.0123,0.0123,0.0122,0.0118,0.0117,0.0106,0.011,0.0107,0.0101,0.0056,0.0047,0.0093,0.0011,-0.0002,-0.004,-0.0022,-0.0057,-0.0062,-0.0138,-0.0137,-0.0136,-0.0047,0,0,0,0,0,0,0.0123,0.0124,0.0134,0.0119,0.0118,0.0124,0.011,0.0107,0.01,0.0099,0.0049,0.0038,0.001,-0.0033,-0.0044,-0.0029,-0.0065,-0.0139,-0.0138,-0.0137,-0.005,-0.0043,-0.0037,0,0,0,0,0,0.0123,0.0141,0.0135,0.0135,0.0131,0.0124,0.0123,0.0113,0.01,0.0104,0.007,0.004,-0.0034,-0.0036,-0.005,-0.0035,-0.0139,-0.0138,-0.0137,-0.0053,-0.0044,-0.0037,0,0,0,0,0,0,0.0137,0.0141,0.0133,0.0149,0.0139,0.0122,0.0135,0.0112,0.009,0.0085,0.0038,0.0026,0.0005,-0.0034,-0.0035,-0.0055,-0.0089,-0.0091,-0.0021,-0.0013,-0.0006,0.0018,-0.0069,0,0,0,0,0,0.0146,0.0163,0.0152,0.0162,0.0168,0.0148,0.0145,0.0128,0.0104,0.0095,0.0058,0.0022,0.0001,-0.0022,-0.005,-0.0074,-0.0092,-0.0072,-0.0065,-0.0059,-0.0049,-0.0054,-0.0046,-0.0132,-0.0132,-0.0132,0,0,0.015,0.0156,0.0162,0.0166,0.0166,0.0178,0.0147,0.0143,0.0139,0.0082,0.0071,0.0042,0.0,-0.0011,-0.0024,-0.0044,-0.0044,-0.0057,-0.0052,-0.0045,-0.0052,-0.0043,-0.0036,-0.0131,-0.0132,-0.0132,0,0,0.0171,0.018,0.0204,0.0216,0.0216,0.0197,0.0195,0.0175,0.0161,0.0136,0.0109,0.0093,0.0038,0.0029,0.0014,0.0035,-0.0003,0.0019,0.0068,0.0063,0.007,0.0077,0.007,0.0075,0.0019,0.0019,0.0019,0,0.0178,0.0214,0.0206,0.0244,0.0263,0.021,0.0239,0.0213,0.0173,0.0176,0.0142,0.0111,0.0066,0.0078,0.0084,0.0054,0.004,0.0043,0.0074,0.008,0.0085,0.0076,0.0081,0.0023,0.0023,0.0022,0.0022,0,0.0219,0.0262,0.0284,0.0315,0.0321,0.0341,0.0312,0.0298,0.0264,0.0244,0.0241,0.019,0.0177,0.016,0.0121,0.0142,0.0118,0.009,0.0059,0.0099,0.0087,0.0091,0.003,0.0028,0.0027,0.0026,0,0,0.0219,0.0299,0.0311,0.0359,0.0372,0.038,0.0379,0.0378,0.039,0.0342,0.0371,0.0325,0.03,0.0281,0.0237,0.0222,0.0235,0.0168,0.0166,0.0173,0.0224,0.0172,0.017,0.0211,0.0212,0.0213,0.0204,0,0.0262,0.0349,0.037,0.0446,0.0497,0.0485,0.0494,0.048,0.0451,0.0457,0.0415,0.0412,0.0343,0.0337,0.0316,0.026,0.0246,0.024,0.0174,0.0173,0.0131,0.0173,0.0162,0.015,0.0207,0.0207,0.0208,0,0.0306,0.0367,0.0449,0.0546,0.0567,0.0588,0.0618,0.0617,0.0606,0.0591,0.0583,0.054,0.0521,0.0445,0.0386,0.0384,0.0312,0.026,0.0258,0.0182,0.0126,0.0116,0.0153,0.0212,0.0212,0.0212,0.0211,0,0.0317,0.0432,0.0499,0.0537,0.061,0.0644,0.0662,0.0662,0.0681,0.0673,0.0688,0.0655,0.0635,0.056,0.0443,0.0414,0.0375,0.0322,0.0214,0.0209,0.0173,0.0163,0.0282,0.0282,0.0282,0.0282,0.0282,0,0.0372,0.0445,0.0518,0.0565,0.0651,0.0684,0.075,0.0755,0.078,0.0825,0.0757,0.0784,0.0658,0.0612,0.0499,0.0379,0.0421,0.0237,0.0209,0.0202,0.0195,0.0221,0.0214,0.0282,0.0282,0.0282,0.0282,0,0.04,0.0444,0.054,0.0628,0.0662,0.0717,0.0813,0.0857,0.0864,0.092,0.0922,0.0886,0.0815,0.069,0.057,0.0447,0.034,0.0281,0.028,0.0251,0.016,0.0158,0.0159,0.0158,0.0156,0.0155,0.0154,0,0.0428,0.0479,0.0571,0.062,0.0672,0.0764,0.0823,0.088,0.0933,0.0992,0.1026,0.0976,0.0946,0.0756,0.0533,0.0339,0.033,0.0199,0.0128,0.0177,0.015,0.015,0.015,0.0119,0.0118,0.0117,0.0116,0,0.0505,0.0519,0.0596,0.0652,0.0731,0.0836,0.0932,0.0997,0.1066,0.1125,0.12,0.1187,0.0972,0.0759,0.0464,0.033,0.0226,0.0167,0.0248,0.0142,0.0136,0.011,0.0112,0.0107,0.0108,0.0109,0.0109,0.011,0.056,0.061,0.0656,0.0727,0.08,0.0894,0.0986,0.1091,0.1203,0.1278,0.1295,0.1249,0.1015,0.0593,0.0378,0.0129,0.0132,0.0041,0.0047,0.0053,0.0039,0.003,-0.0021,-0.0021,-0.0021,-0.0021,-0.002,0,0.0639,0.0678,0.0726,0.0806,0.0864,0.0893,0.1046,0.1137,0.1279,0.1306,0.1349,0.1109,0.0859,0.0601,0.0202,-0.0019,-0.0026,-0.007,-0.0029,-0.0019,-0.0011,-0.0026,-0.0104,-0.0105,-0.0105,-0.0106,0,0,0.0679,0.0755,0.0761,0.0851,0.0888,0.0995,0.1086,0.122,0.1277,0.1304,0.1251,0.1175,0.0881,0.0589,0.0305,0.0095,0.0087,0.0053,0.0137,0.0227,0.0238,0.0064,0.0052,0,0,0,0,0]}],[{"header":{"parameterUnit":"m.s-1","parameterCategory":2,"la1":30.2991,"la2":30.254,"lo1":-89.0895,"lo2":-89.0444,"dy":0.0017,"dx":0.0017,"nx":28,"ny":28,"refTime":"2023-03-30T15:00:00:Z","depth":"4","parameterNumber":2,"parameterNumberName":"U-component_of_CURRENTS"},"data":[0,0,0,0,0,0,0,0,0,0,0,0,0,0,0,0,0,0,0,0,0,0,0,0,0,0,0,0,0,0,0,0,0,0,0,0,0,0,0,0,0,0,0,0,0,0,0,0,0,0,0,0,0,0,0,0,0,0,0.0793,0.0793,0,0.0731,0.0729,0.0727,0.0641,0.0641,0.0641,0.0641,0.0593,0.0592,0.0591,0,0,0,0,0,0,0,0,0,0,0,0,0,0.0861,0.0859,0.0792,0.0793,0.0794,0.0731,0.0729,0.0727,0.0641,0.0641,0.0641,0.0641,0.0593,0.0592,0.0591,0,0,0,0,0,0,0,0,0,0,0,0,0,0.0804,0.0858,0.0792,0.0755,0.0752,0.0732,0.0729,0.0726,0.0641,0.0641,0.0641,0.0641,0.0594,0.0592,0.059,0.0582,0,0,0.0585,0.0584,0,0,0,0,0,0,0,0,0.0807,0.08,0.076,0.0757,0.0754,0.0707,0.0736,0.0684,0.0641,0.0667,0.0641,0.0641,0.0642,0.0636,0.0604,0.058,0.0578,0.0585,0.0584,0.0583,0.0582,0,0,0,0,0,0,0,0.0811,0.0802,0.0753,0.0761,0.0757,0.0751,0.074,0.0725,0.0645,0.0665,0.0662,0.0679,0.0639,0.0605,0.0602,0.0577,0.0585,0.0583,0.0582,0.0581,0.0686,0.0689,0,0,0,0,0,0,0.0847,0.0806,0.0755,0.0753,0.0798,0.075,0.0738,0.071,0.0645,0.0639,0.068,0.0676,0.0608,0.0604,0.06,0.0651,0.0583,0.0581,0.058,0.0682,0.0686,0.0691,0,0,0,0,0,0,0.0848,0.0841,0.0758,0.0793,0.0784,0.0751,0.0719,0.0709,0.0704,0.0659,0.065,0.069,0.0608,0.0603,0.0572,0.0646,0.058,0.0579,0.0677,0.0683,0.0688,0.0711,0,0,0,0,0,0,0.0849,0.0841,0.0841,0.0794,0.0783,0.0763,0.072,0.0709,0.072,0.0715,0.0665,0.0658,0.0608,0.0575,0.0571,0.0643,0.0577,0.0672,0.068,0.0687,0.0706,0.0717,0.0727,0,0,0,0,0,0.0851,0.0828,0.0839,0.0836,0.0779,0.0765,0.0757,0.0725,0.0722,0.0718,0.0664,0.066,0.0623,0.0573,0.0568,0.0642,0.0669,0.0678,0.0686,0.0701,0.0715,0.0727,0,0,0,0,0,0,0.0844,0.0818,0.0828,0.0797,0.0805,0.0757,0.0757,0.0752,0.0705,0.0713,0.0651,0.0639,0.0651,0.0654,0.0602,0.0707,0.0671,0.0679,0.0685,0.0698,0.0708,0.0758,0.0576,0,0,0,0,0,0.0855,0.0837,0.0829,0.0816,0.0822,0.0806,0.0804,0.08,0.0761,0.0742,0.0714,0.0705,0.0682,0.0689,0.067,0.0703,0.0705,0.0775,0.0785,0.0794,0.084,0.0885,0.0903,0.0719,0.0719,0.0719,0,0,0.0864,0.0843,0.0841,0.0819,0.0816,0.081,0.0798,0.0817,0.0811,0.0749,0.0731,0.0723,0.0694,0.0709,0.0728,0.0721,0.0838,0.0805,0.0811,0.0853,0.0896,0.0913,0.0929,0.0725,0.0724,0.0723,0,0,0.0848,0.0846,0.0826,0.0834,0.0859,0.0848,0.087,0.0864,0.0858,0.0851,0.0811,0.0843,0.0816,0.0814,0.0803,0.0881,0.0874,0.0919,0.1022,0.1065,0.1079,0.1092,0.1057,0.1067,0.0945,0.0945,0.0946,0,0.0868,0.0826,0.0828,0.0814,0.0835,0.0868,0.0875,0.0862,0.0854,0.0867,0.0863,0.0885,0.0866,0.0888,0.0927,0.0904,0.0907,0.0951,0.1073,0.1087,0.11,0.1062,0.1072,0.0948,0.0947,0.0947,0.0947,0,0.0836,0.0821,0.0816,0.0805,0.0826,0.0849,0.0862,0.0887,0.0914,0.0921,0.0979,0.0968,0.1009,0.1024,0.0988,0.1103,0.1062,0.1051,0.1024,0.1119,0.1073,0.1083,0.0951,0.095,0.0949,0.0949,0,0,0.0844,0.0799,0.0809,0.0811,0.084,0.0854,0.0866,0.0892,0.0917,0.0974,0.102,0.1052,0.1133,0.1137,0.115,0.1212,0.1276,0.1203,0.1204,0.1138,0.1329,0.1202,0.12,0.1289,0.1292,0.1295,0.1235,0,0.0835,0.0788,0.0788,0.0801,0.0791,0.0843,0.0839,0.0885,0.0931,0.0982,0.106,0.1098,0.1146,0.1195,0.1281,0.1277,0.1319,0.1292,0.1278,0.1276,0.1128,0.1215,0.1307,0.1242,0.1245,0.1246,0.1248,0,0.0817,0.0786,0.0779,0.0783,0.0793,0.082,0.0888,0.091,0.098,0.1012,0.1136,0.1179,0.1307,0.1322,0.1429,0.1415,0.141,0.1397,0.1393,0.1292,0.1174,0.115,0.1266,0.1265,0.1263,0.1262,0.1261,0,0.0816,0.0794,0.0792,0.0803,0.0807,0.0846,0.0884,0.0945,0.0973,0.108,0.1121,0.126,0.1355,0.141,0.1433,0.1448,0.1493,0.1484,0.1346,0.1331,0.1444,0.1432,0.1552,0.1552,0.1552,0.1552,0.1553,0,0.079,0.079,0.08,0.0806,0.0827,0.0871,0.0933,0.0963,0.1045,0.1092,0.1194,0.1252,0.1401,0.1438,0.1442,0.1425,0.1502,0.139,0.1338,0.1447,0.1437,0.1446,0.1434,0.155,0.1551,0.1551,0.1551,0,0.0752,0.076,0.0776,0.0812,0.0823,0.0874,0.0942,0.0979,0.1054,0.1132,0.1169,0.1288,0.1354,0.1392,0.1446,0.1422,0.1384,0.1333,0.1396,0.1342,0.1188,0.118,0.1218,0.1214,0.121,0.1207,0.1204,0,0.0708,0.0695,0.0781,0.0816,0.0841,0.09,0.092,0.0983,0.1028,0.1127,0.116,0.1252,0.1313,0.128,0.1337,0.1285,0.1273,0.1217,0.1296,0.1224,0.1169,0.1166,0.1162,0.1199,0.1198,0.1197,0.1196,0,0.0608,0.0675,0.0705,0.0782,0.0843,0.0848,0.0903,0.0915,0.1003,0.1075,0.112,0.1138,0.1199,0.1245,0.1194,0.116,0.125,0.118,0.119,0.1263,0.1201,0.1149,0.115,0.1183,0.1185,0.1186,0.1187,0,0.0586,0.0586,0.0667,0.0742,0.0795,0.0789,0.0817,0.0857,0.0893,0.1015,0.1029,0.1101,0.1208,0.1173,0.1117,0.1085,0.1105,0.107,0.1086,0.11,0.1091,0.0996,0.0899,0,0,0,0,0,0.0534,0.0527,0.0591,0.0661,0.0716,0.0734,0.0787,0.0824,0.0913,0.0926,0.0973,0.1004,0.1002,0.1038,0.0987,0.1051,0.1085,0.0982,0.1048,0.1113,0.1128,0.1129,0,0,0,0,0,0,0.051,0.0536,0.0567,0.0578,0.0604,0.0611,0.0648,0.0701,0.0718,0.0833,0.0852,0.0926,0.095,0.1022,0.0965,0.0968,0.0982,0.1026,0.1022,0.1105,0.1118,0.113,0.1136,0,0,0,0,0]},{"header":{"parameterUnit":"m.s-1","parameterCategory":2,"la1":30.2991,"la2":30.254,"lo1":-89.0895,"lo2":-89.0444,"dy":0.0017,"dx":0.0017,"nx":28,"ny":28,"refTime":"2023-03-30T15:00:00:Z","depth":"4","parameterNumber":3,"parameterNumberName":"V-component_of_CURRENTS"},"data":[0,0,0,0,0,0,0,0,0,0,0,0,0,0,0,0,0,0,0,0,0,0,0,0,0,0,0,0,0,0,0,0,0,0,0,0,0,0,0,0,0,0,0,0,0,0,0,0,0,0,0,0,0,0,0,0,0,0,0.0201,0.02,0,0.017,0.017,0.017,0.0206,0.0207,0.0208,0.0209,0.0222,0.0221,0.0221,0,0,0,0,0,0,0,0,0,0,0,0,0,0.019,0.0191,0.0201,0.02,0.02,0.017,0.017,0.017,0.0206,0.0207,0.0208,0.021,0.0223,0.0222,0.0221,0,0,0,0,0,0,0,0,0,0,0,0,0,0.0183,0.0191,0.0201,0.0213,0.0214,0.017,0.017,0.017,0.0205,0.0207,0.0209,0.0211,0.0223,0.0222,0.0221,0.0177,0,0,0.0217,0.0216,0,0,0,0,0,0,0,0,0.0183,0.0183,0.0212,0.0212,0.0213,0.0193,0.0171,0.0174,0.0205,0.021,0.0209,0.0211,0.0214,0.0214,0.0205,0.0178,0.0178,0.0217,0.0216,0.0216,0.0215,0,0,0,0,0,0,0,0.0184,0.0184,0.019,0.0211,0.0212,0.0186,0.0188,0.0171,0.0204,0.021,0.0212,0.0206,0.0215,0.0206,0.0206,0.0178,0.0217,0.0216,0.0215,0.0215,0.0112,0.011,0,0,0,0,0,0,0.0188,0.0185,0.0191,0.0189,0.02,0.0185,0.0187,0.0198,0.0203,0.0205,0.0204,0.0207,0.0207,0.0207,0.0207,0.0197,0.0216,0.0215,0.0214,0.0114,0.0112,0.011,0,0,0,0,0,0,0.0188,0.0189,0.0192,0.0184,0.0183,0.0184,0.0195,0.0197,0.0201,0.0198,0.0202,0.0209,0.0209,0.0208,0.0208,0.0196,0.0214,0.0213,0.0117,0.0114,0.0111,0.015,0,0,0,0,0,0,0.0188,0.019,0.02,0.0185,0.0183,0.0186,0.0194,0.0195,0.0193,0.0198,0.0203,0.0206,0.021,0.021,0.0207,0.0195,0.0212,0.0119,0.0115,0.0112,0.0151,0.0149,0.0147,0,0,0,0,0,0.0188,0.0197,0.0201,0.0201,0.0198,0.0186,0.0183,0.0189,0.0192,0.0199,0.02,0.0206,0.0182,0.0208,0.0205,0.0192,0.0121,0.0116,0.0112,0.0153,0.0149,0.0147,0,0,0,0,0,0,0.0193,0.02,0.0205,0.0215,0.0209,0.0192,0.0196,0.0188,0.019,0.0199,0.0197,0.0199,0.0192,0.0172,0.02,0.0143,0.0144,0.0139,0.0176,0.0173,0.0171,0.0219,0.0211,0,0,0,0,0,0.0197,0.0211,0.0206,0.0213,0.0216,0.0203,0.0198,0.0198,0.0194,0.0197,0.0198,0.0182,0.0162,0.0158,0.0144,0.0118,0.0093,0.0097,0.0095,0.0093,0.0124,0.005,0.0045,0.0095,0.0095,0.0095,0,0,0.0196,0.0203,0.0209,0.0215,0.0214,0.0219,0.0207,0.0205,0.0204,0.0196,0.0204,0.0185,0.0154,0.0136,0.0127,0.0125,0.0061,0.0087,0.0087,0.012,0.0045,0.0041,0.0037,0.0092,0.0092,0.0093,0,0,0.0205,0.0215,0.0235,0.0238,0.0239,0.0228,0.023,0.022,0.0219,0.0211,0.0198,0.0178,0.0152,0.0131,0.0113,0.0079,0.0056,0.0054,0.0084,0.0011,0.0008,0.0005,-0.004,-0.0047,0.0048,0.0048,0.0048,0,0.0209,0.0234,0.0233,0.0255,0.0264,0.0237,0.0257,0.0238,0.0226,0.022,0.0224,0.0173,0.015,0.0118,0.0112,0.008,0.0044,0.0108,0.0013,0.0009,0.0005,-0.004,-0.0048,0.0049,0.0049,0.0049,0.0049,0,0.023,0.0258,0.0268,0.0295,0.0299,0.0307,0.0292,0.028,0.0267,0.025,0.0229,0.0196,0.0174,0.0136,0.0126,0.0075,0.0061,0.0027,0.0034,0.0004,-0.0043,-0.0053,0.0051,0.005,0.005,0.005,0,0,0.0233,0.0278,0.0285,0.0315,0.0327,0.0331,0.0323,0.0311,0.03,0.0279,0.0276,0.0228,0.0218,0.0196,0.0158,0.0096,0.0031,0.0061,0.0057,0.0045,-0.0111,-0.0068,-0.0074,-0.0022,-0.0023,-0.0024,-0.0133,0,0.0258,0.031,0.0324,0.0368,0.0398,0.0384,0.0375,0.0355,0.0333,0.0316,0.0271,0.0254,0.0234,0.0223,0.0165,0.0068,0.0009,0.0066,-0.0102,-0.0105,-0.0041,-0.0083,-0.0029,-0.0141,-0.0143,-0.0144,-0.0145,0,0.0283,0.0317,0.0376,0.0416,0.0427,0.0445,0.0438,0.0435,0.0391,0.0367,0.0352,0.0318,0.0265,0.0234,0.0088,0.0126,0.0028,-0.0056,-0.0064,-0.0032,-0.0079,-0.0107,-0.0163,-0.0162,-0.016,-0.0159,-0.0158,0,0.0297,0.0356,0.0408,0.0426,0.0456,0.0478,0.0492,0.0461,0.0457,0.0423,0.0408,0.0343,0.0321,0.0191,0.0059,0.0061,-0.0118,-0.0153,-0.0206,-0.0204,-0.0223,-0.0219,-0.0269,-0.0269,-0.0268,-0.0268,-0.0268,0,0.0326,0.0369,0.0425,0.0458,0.0497,0.0524,0.0556,0.053,0.0522,0.0521,0.0465,0.0438,0.0306,0.02,0.0064,-0.0078,-0.0118,-0.0186,-0.0229,-0.0209,-0.0201,-0.023,-0.0225,-0.0272,-0.0271,-0.027,-0.027,0,0.0347,0.0381,0.0444,0.0497,0.0515,0.0557,0.0613,0.0627,0.0602,0.0603,0.0598,0.0508,0.0374,0.0227,0.0013,-0.0058,-0.0224,-0.0275,-0.0214,-0.0255,-0.0261,-0.0253,-0.0336,-0.0335,-0.0335,-0.0334,-0.0334,0,0.0365,0.04,0.0476,0.0512,0.0553,0.0618,0.0652,0.0664,0.0688,0.0636,0.0638,0.0526,0.0449,0.0198,0.0035,-0.0203,-0.0239,-0.0303,-0.0288,-0.0234,-0.0269,-0.0261,-0.0253,-0.0333,-0.0333,-0.0333,-0.0333,0,0.0391,0.0421,0.0473,0.0545,0.0609,0.0662,0.0729,0.0744,0.0754,0.0731,0.066,0.0538,0.0401,0.0217,0.0048,-0.0135,-0.0246,-0.0298,-0.0301,-0.0288,-0.0232,-0.0265,-0.0258,-0.0331,-0.0331,-0.0331,-0.0332,0,0.0408,0.0444,0.051,0.0573,0.064,0.0691,0.0726,0.076,0.0773,0.0731,0.0707,0.054,0.0461,0.025,0.0074,-0.007,-0.0109,-0.0146,-0.0157,-0.0161,-0.0068,0.0031,-0.0017,0,0,0,0,0,0.0413,0.0461,0.0528,0.0592,0.0656,0.0691,0.0759,0.0791,0.0808,0.077,0.074,0.0602,0.0376,0.0273,0.0134,0.0073,-0.014,-0.0092,-0.019,-0.0321,-0.0323,-0.0239,0,0,0,0,0,0,0.0424,0.0488,0.053,0.0592,0.0634,0.0702,0.0748,0.0761,0.0746,0.0739,0.0619,0.0574,0.0349,0.044,0.0126,0.0083,0.0008,-0.0197,-0.0199,-0.032,-0.0322,-0.0323,-0.0238,0,0,0,0,0]}]]